Location: Riverside Cemetery
(38.3047°N, 99.7773°W)
Time: 16:08:02
(UTC+00:00)

Cosmos 1072 Rocket - Pass Details

Date: 19 September 2020
Orbit: 949 x 1008 km, 82.9° (Epoch: 21 October)

Event Time Altitude Azimuth Distance (km) Brightness Sun altitude
Rises 01:43:51 0° 176° (S) 3,635 7.3 -13.0°
Reaches altitude 10° 01:46:20 10° 174° (S) 2,700 6.6 -13.4°
Maximum altitude 01:52:27 67° 93° (E) 1,057 4.4 -14.6°
Drops below altitude 10° 01:58:43 10° 12° (NNE) 2,757 6.9 -15.8°
Sets 02:01:16 0° 10° (N) 3,718 7.6 -16.3°
